Home   Weather   Wuhan   Past weeks

Flag for China Past Weather in Wuhan, Hubei, China — Yesterday and Last 2 Weeks

Now
90 °F

Fog.


Feels Like: 111 °F
Forecast: 86 / 102 °F
Wind: 10 mph from Northeast

Location: Wuhan Airport

Current Time: Jul 28, 2017 at 8:56:16 am

Latest Report: Jul 28, 2017 at 8:00 am


Visibility: 3 mi

Pressure: 29.68 "Hg

Humidity: 79%

Dew Point: 82 °F

Location of WuhanLocation

Past Weather in Wuhan — Graph

°F

Wuhan Temperature Yesterday

Maximum temperature yesterday: 102 °F (at 4:00 pm)
Minimum temperature yesterday: 86 °F (at 5:00 am)
Average temperature yesterday: 96 °F

High & Low Weather Summary for the Past Weeks

 TemperatureHumidityPressure
High102 °F (Jul 26, 2:00 pm)89% (Jul 16, 3:00 am)29.80 "Hg (Jul 16, 3:00 am)
Low82 °F (Jul 16, 3:00 am)42% (Jul 22, 5:00 pm)29.53 "Hg (Jul 26, 4:00 pm)
Average91 °F64%29.67 "Hg
* Reported Jul 13 7:00 am — Jul 28 7:00 am, Wuhan. Weather by CustomWeather, © 2017

Note: Actual official high and low records may vary slightly from our data, if they occured in-between our weather recording intervals... More about our weather records

Advertising

Wuhan Weather History for the Previous 24 Hours

Scroll right to see more
 ConditionsComfort  
Time TempWeatherWind HumidityBarometerVisibility
7:00 am
Fri, Jul 28
88 °FFog.10 mph79%29.68 "Hg2 mi
6:00 am86 °FFog.10 mph89%29.65 "Hg2 mi
5:00 am86 °FClear.10 mph84%29.65 "Hg10 mi
4:00 am88 °FClear.8 mph75%29.65 "Hg10 mi
3:00 am88 °FClear.6 mph75%29.65 "Hg10 mi
2:00 am88 °FClear.6 mph75%29.65 "Hg10 mi
1:00 am91 °FClear.6 mph67%29.65 "Hg10 mi
12:00 am90 °FPassing clouds.6 mph71%29.65 "HgN/A
11:00 pm
Thu, Jul 27
95 °FPassing clouds.3 mph53%29.65 "HgN/A
10:00 pm95 °FPassing clouds.6 mph53%29.62 "HgN/A
9:00 pm97 °FPassing clouds.3 mph50%29.62 "HgN/A
8:00 pm99 °FPassing clouds.6 mph44%29.59 "HgN/A
7:00 pm99 °FScattered clouds.8 mph50%29.56 "HgN/A
6:00 pm100 °FScattered clouds.10 mph50%29.56 "HgN/A
5:00 pm100 °FPassing clouds.8 mph50%29.56 "Hg5 mi
4:00 pm102 °FPassing clouds.3 mph45%29.56 "Hg5 mi
3:00 pm100 °FPassing clouds.6 mph53%29.56 "Hg5 mi
2:00 pm100 °FPassing clouds.3 mph53%29.59 "Hg5 mi
1:00 pm99 °FPassing clouds.6 mph57%29.59 "Hg4 mi
12:00 pm100 °FPassing clouds.6 mph50%29.59 "Hg4 mi
11:00 am99 °FPassing clouds.6 mph53%29.62 "HgN/A
10:00 am99 °FSunny.6 mph53%29.62 "Hg10 mi
9:00 am97 °FPassing clouds.3 mph63%29.62 "HgN/A
8:00 am93 °FSunny.3 mph71%29.62 "Hg10 mi
Weather by CustomWeather, © 2017

See weather overviewHow to use our weather pages